#timestamp,LO_Frequency,Hit,StdDev 
1678143615.5,286047001.0,N
1678143635.4,286046999.4,N
1678143655.2,286047000.3,N
1678143675.0,286046998.2,N
1678143675.9,286046998.2,N
1678143695.8,286047001.0,N
1678143715.6,286046998.5,N
1678143735.4,286046998.1,N
1678143755.3,286047000.7,N
1678143775.1,286047000.8,N
1678143795.9,286046998.5,N
1678143815.7,286047002.8,N
1678143835.5,286047001.1,N
1678143855.4,286047000.9,N
1678143875.2,286046999.9,N
1678143895.0,286046998.6,N
1678143895.9,286046998.6,N
1678143915.8,286046998.9,N
1678143935.6,286046999.4,N
1678143955.5,286046998.4,N
1678143975.3,286047000.6,N
1678143995.1,286047000.5,N
1678144015.9,286046998.7,N
1678144035.7,286046998.1,N
1678144055.5,286046998.9,N
1678144075.4,286046999.3,N
1678144095.2,286046997.2,N
1678144115.1,286046997.3,N
1678144116.0,286046997.3,N
1678144135.8,286046999.2,N
1678144155.6,286046999.2,N
1678144175.5,286046999.0,N
1678144195.3,286046997.0,N
1678144215.1,286046998.1,N
1678144235.9,286047000.2,N
1678144255.7,286047001.2,N
1678144275.6,286047000.4,N
1678144295.4,286046998.7,N
1678144315.2,286046999.6,N
1678144335.1,286046998.7,N
1678144336.0,286046998.7,N
1678144355.8,286046998.8,N
1678144375.7,286046998.8,N
1678144395.5,286046999.0,N
1678144415.3,286046998.7,N
1678144435.2,286047001.2,N
1678144455.0,286047000.3,N
1678144455.9,286047000.3,N
1678144475.7,286047002.4,N
1678144495.6,286047002.3,N
1678144515.4,286047000.0,N
1678144535.3,286046998.4,N
1678144555.1,286047000.8,N
1678144575.8,286047000.0,N
1678144595.7,286047001.0,N
1678144615.5,286046998.6,N
1678144635.4,286046998.1,N
1678144655.2,286046998.3,N
1678144675.0,286047000.8,N
1678144675.9,286047000.8,N
1678144695.8,286046998.7,N
1678144715.6,286046997.1,N
1678144735.5,286046996.7,N
1678144755.3,286046998.8,N
1678144775.1,286046998.9,N
1678144795.9,286046996.5,N
1678144815.7,286046996.6,N
1678144835.5,286046998.7,N
1678144855.4,286046996.8,N
1678144875.2,286046997.6,N
1678144895.1,286046999.5,N
1678144896.0,286046999.5,N
1678144915.8,286046997.7,N
1678144935.6,286046997.3,N
1678144955.5,286046995.4,N
1678144975.3,286046997.1,N
1678144995.1,286046996.7,N
1678145015.9,286046998.7,N
1678145035.7,286046998.5,N
1678145055.6,286046998.3,N
1678145075.4,286046997.0,N
1678145095.2,286046997.6,N
1678145115.1,286046997.1,N
1678145116.0,286046997.1,N
1678145135.8,286046996.5,N
1678145155.6,286046997.4,N
1678145175.5,286046997.5,N
1678145195.3,286046999.0,N
1678145215.2,286046997.4,N
1678145235.9,286046997.2,N
1678145255.7,286046997.1,N
1678145275.6,286046995.3,Y
1678145295.4,286046996.5,P
1678145315.2,286046996.9,P
1678145335.1,286046998.6,P
1678145336.0,286046998.6,N
1678145355.8,286046999.3,N
1678145375.7,286046996.6,Y
1678145395.5,286047000.3,P
1678145415.3,286047000.0,N
1678145435.2,286047001.5,N
1678145455.0,286047001.5,N
1678145455.9,286047001.5,N
1678145475.8,286047001.8,N
1678145495.6,286047003.2,N
1678145515.4,286047005.9,Y
1678145535.3,286047001.9,P
1678145555.1,286047001.5,P
1678145575.8,286047002.3,P
1678145595.7,286047001.7,Y
1678145615.5,286047001.1,P
1678145635.4,286046998.6,P
1678145655.2,286046999.0,N
1678145675.0,286046998.3,N
1678145675.9,286046998.3,N
1678145695.8,286046998.7,N
1678145715.6,286046998.7,N
1678145735.4,286047001.1,N
1678145755.3,286047001.2,N
1678145775.1,286046998.1,N
1678145795.9,286047000.8,N
1678145815.7,286047000.2,N
1678145835.5,286046999.9,N
1678145855.4,286047000.5,N
1678145875.2,286046998.5,N
1678145895.0,286046996.9,N
1678145895.9,286046996.9,N
1678145915.8,286046999.6,N
1678145935.6,286046999.3,N
1678145955.5,286047001.2,N
1678145975.3,286047000.3,N
1678145995.1,286047001.0,N
1678146015.9,286047000.9,N
1678146035.7,286047000.3,N
1678146055.5,286046998.8,N
1678146075.4,286047001.0,N
1678146095.2,286046998.1,N
1678146115.1,286046998.9,N
1678146116.0,286046998.9,N
1678146135.8,286047000.8,N
1678146155.6,286047000.5,N
1678146175.5,286046999.1,N
1678146195.3,286046998.9,N
1678146215.1,286046997.8,N
1678146235.9,286046996.6,N
1678146255.7,286046999.4,N
1678146275.6,286046998.2,N
1678146295.4,286046999.5,N
1678146315.2,286046999.3,N
1678146335.1,286046999.6,N
1678146336.0,286046999.6,N
1678146355.8,286046999.6,N
1678146375.6,286047000.8,N
1678146395.5,286047001.0,N
1678146415.3,286046999.8,N
1678146435.2,286047000.0,N
1678146455.9,286047001.2,N
1678146475.7,286047000.6,N
1678146495.6,286046999.0,N
1678146515.4,286046999.6,N
1678146535.2,286046997.1,N
1678146555.1,286046998.5,N
1678146556.0,286046998.5,N
1678146575.8,286046998.2,N
1678146595.7,286046999.4,N
1678146615.5,286047001.1,N
1678146635.3,286047001.0,N
1678146655.2,286047001.1,N
1678146675.0,286046999.5,N
1678146675.9,286046999.5,N
1678146695.8,286046999.6,N
1678146715.6,286046999.6,N
1678146735.4,286046996.8,N
1678146755.3,286046996.9,N
1678146775.1,286046997.3,N
1678146795.8,286046997.6,N
1678146815.7,286046997.8,N
1678146835.5,286046997.1,N
1678146855.4,286046997.4,N
1678146875.2,286046999.0,N
1678146895.0,286046999.3,N
1678146895.9,286046999.3,N
1678146915.8,286046999.3,N
1678146935.6,286046998.7,N
1678146955.5,286046998.4,N
1678146975.3,286046999.6,N
1678146995.1,286046996.6,N
1678147015.9,286046998.0,N
1678147035.7,286046995.0,Y
1678147055.5,286046996.5,P
1678147075.4,286046998.7,N
1678147095.2,286046998.1,N
1678147115.1,286046998.7,N
1678147116.0,286046998.7,N
1678147135.8,286047000.5,N
1678147155.6,286046998.6,N
1678147175.5,286046999.1,N
1678147195.3,286046999.2,N
